APRIZESAT 7 (39416 NORAD) Tracking and Keplerian Element Data

This shows tracking and keplerian element data for the satellite.

Feedback or suggestion? Click here.




ElementValue
Catalog39416
NameAPRIZESAT 7
Epoch Orbit65416
Epoch Day351.58791045
Epoch Year2025
RAAN302.7623
Inclination97.7478
Eccentricity0.0037879
Argument of Perigee93.0669
Mean Anonmoly267.4884
Mean Motion14.90916766
Decay Rate1.184E-05
L11 39416U 13066A 25351.58791045 .00001184 00000+0 12412-3 0 9990
L22 39416 97.7478 302.7623 0037879 93.0669 267.4884 14.90916766654167



Live tracking and technical data element details for APRIZESAT 7 (NORAD 39416). APRIZESAT 7 can be tracked NOW for your location showing map with azimuth and elevation plus other details from your city location.







IsCatalogInMostPopularTable: catalog: 39416, numindb: 682
Update: records affected: 1



GetName: 39416 APRIZESAT 7

Hit Count: updated at: Thu, 21 May 2026 11:30:02 GMT